QPF
0.01 0.01 0.02 0.02 0.03 0.02 0.01 0.01 0.01 0.02 0.02 0.02 0.02 0.02 0.01 0.01 0.01 0.02 0.01 0.01 0.01 0.03 0.04 0.03 0.03 0.03 0.02 0.01 0.01 0.01 0.02 0.02 0.01 0.02 0.02 0.02 0.02 0.01 0.01 0.01 0.01 0.01 0.02
0.01 0.01 0.01 0.03 0.04 0.03 0.02 0.01 0.01 0.01 0.02 0.02 0.02 0.02 0.02 0.02 0.02 0.02 0.02 0.02 0.02 0.04 0.04 0.05 0.04 0.03 0.02 0.01 0.01 0.01 0.01 0.01 0.01 0.01 0.02 0.02 0.02 0.01 0.01 0.01 0.01 0.02 0.02
0.02 0.01 0.01 0.03 0.03 0.03 0.02 0.02 0.01 0.01 0.01 0.01 0.02 0.01 0.02 0.03 0.05 0.04 0.02 0.03 0.04 0.05 0.05 0.03 0.02 0.02 0.01 0.01 0.01 0.01 0.01 0.00 0.01 0.01 0.02 0.03 0.02 0.02 0.02 0.01 0.01 0.02 0.02
0.03 0.02 0.02 0.02 0.03 0.04 0.03 0.02 0.01 0.01 0.02 0.02 0.02 0.02 0.03 0.03 0.05 0.05 0.03 0.03 0.03 0.03 0.03 0.02 0.02 0.02 0.01 0.01 0.01 0.01 0.01 0.01 0.01 0.01 0.02 0.04 0.03 0.03 0.02 0.02 0.01 0.02 0.02
0.04 0.02 0.01 0.02 0.03 0.04 0.05 0.03 0.03 0.03 0.04 0.04 0.03 0.04 0.03 0.04 0.06 0.05 0.03 0.04 0.03 0.02 0.02 0.02 0.02 0.02 0.01 0.01 0.01 0.01 0.01 0.01 0.00 0.00 0.01 0.02 0.02 0.03 0.03 0.02 0.02 0.03 0.02
0.04 0.02 0.01 0.02 0.03 0.04 0.04 0.05 0.04 0.05 0.05 0.05 0.04 0.05 0.03 0.05 0.06 0.05 0.03 0.03 0.03 0.02 0.02 0.03 0.03 0.02 0.01 0.01 0.01 0.01 0.00 0.01 0.00 0.01 0.01 0.02 0.01 0.01 0.02 0.02 0.02 0.03 0.03
0.04 0.03 0.02 0.02 0.03 0.04 0.04 0.07 0.07 0.06 0.06 0.06 0.05 0.05 0.05 0.06 0.05 0.04 0.04 0.04 0.03 0.03 0.02 0.03 0.03 0.02 0.01 0.01 0.01 0.00 0.00 0.01 0.00 0.01 0.01 0.02 0.01 0.01 0.01 0.02 0.03 0.04 0.04
0.05 0.05 0.03 0.02 0.03 0.04 0.04 0.05 0.06 0.07 0.08 0.07 0.06 0.05 0.05 0.04 0.03 0.04 0.04 0.04 0.03 0.02 0.02 0.02 0.02 0.02 0.01 0.01 0.01 0.01 0.00 0.01 0.01 0.01 0.01 0.02 0.01 0.01 0.01 0.02 0.03 0.04 0.03
0.06 0.07 0.05 0.04 0.04 0.04 0.04 0.04 0.04 0.05 0.07 0.07 0.07 0.06 0.04 0.03 0.02 0.03 0.03 0.03 0.02 0.01 0.01 0.01 0.01 0.02 0.01 0.01 0.01 0.01 0.01 0.01 0.02 0.02 0.02 0.02 0.01 0.02 0.02 0.03 0.04 0.06 0.06
0.04 0.05 0.05 0.06 0.07 0.06 0.05 0.05 0.05 0.05 0.05 0.06 0.06 0.05 0.03 0.02 0.01 0.01 0.02 0.02 0.01 0.01 0.01 0.01 0.01 0.01 0.01 0.01 0.01 0.01 0.02 0.01 0.02 0.02 0.01 0.01 0.01 0.03 0.04 0.05 0.08 0.11 0.11
0.03 0.03 0.03 0.04 0.06 0.07 0.07 0.05 0.07 0.06 0.07 0.06 0.05 0.04 0.03 0.02 0.02 0.01 0.01 0.01 0.01 0.01 0.01 0.01 0.01 0.01 0.01 0.01 0.01 0.01 0.01 0.02 0.01 0.01 0.01 0.01 0.03 0.05 0.04 0.03 0.04 0.06 0.07
0.04 0.04 0.03 0.04 0.05 0.06 0.07 0.08 0.07 0.07 0.07 0.07 0.05 0.05 0.04 0.03 0.03 0.02 0.01 0.01 0.01 0.01 0.00 0.00 0.01 0.01 0.01 0.01 0.01 0.01 0.01 0.01 0.02 0.01 0.01 0.01 0.04 0.06 0.05 0.03 0.03 0.03 0.03
0.04 0.05 0.03 0.02 0.03 0.04 0.06 0.09 0.11 0.10 0.08 0.07 0.06 0.07 0.06 0.04 0.03 0.02 0.02 0.01 0.01 0.01 0.01 0.01 0.01 0.00 0.01 0.01 0.01 0.01 0.01 0.01 0.01 0.01 0.02 0.02 0.05 0.06 0.06 0.05 0.04 0.04 0.05
0.02 0.04 0.03 0.02 0.02 0.03 0.04 0.07 0.10 0.11 0.10 0.10 0.09 0.09 0.09 0.06 0.03 0.02 0.02 0.01 0.01 0.01 0.01 0.01 0.01 0.01 0.01 0.01 0.01 0.02 0.02 0.02 0.02 0.02 0.02 0.02 0.05 0.07 0.07 0.06 0.06 0.06 0.07
0.02 0.02 0.02 0.02 0.01 0.02 0.04 0.04 0.07 0.10 0.11 0.11 0.12 0.12 0.09 0.08 0.05 0.03 0.02 0.01 0.01 0.01 0.01 0.01 0.01 0.01 0.01 0.01 0.02 0.02 0.02 0.02 0.02 0.03 0.03 0.03 0.04 0.05 0.05 0.04 0.04 0.06 0.09
0.02 0.02 0.01 0.01 0.01 0.02 0.03 0.03 0.04 0.07 0.09 0.10 0.11 0.11 0.10 0.09 0.07 0.03 0.02 0.01 0.01 0.01 0.01 0.01 0.01 0.01 0.01 0.01 0.02 0.02 0.02 0.02 0.02 0.03 0.04 0.04 0.05 0.04 0.03 0.03 0.03 0.03 0.05
0.02 0.03 0.02 0.02 0.02 0.02 0.03 0.03 0.03 0.05 0.07 0.09 0.11 0.12 0.10 0.10 0.09 0.05 0.02 0.01 0.01 0.01 0.01 0.01 0.01 0.01 0.01 0.01 0.01 0.02 0.02 0.02 0.02 0.02 0.02 0.02 0.03 0.04 0.04 0.03 0.03 0.03 0.06
0.03 0.03 0.03 0.02 0.02 0.03 0.03 0.03 0.03 0.04 0.06 0.07 0.10 0.12 0.12 0.10 0.09 0.07 0.03 0.02 0.01 0.01 0.01 0.01 0.01 0.01 0.01 0.01 0.01 0.02 0.01 0.01 0.01 0.01 0.02 0.02 0.01 0.02 0.02 0.02 0.02 0.02 0.04
0.03 0.04 0.04 0.04 0.03 0.03 0.03 0.03 0.03 0.04 0.05 0.05 0.07 0.10 0.11 0.11 0.11 0.09 0.05 0.03 0.01 0.01 0.01 0.01 0.01 0.01 0.01 0.01 0.01 0.01 0.01 0.01 0.01 0.01 0.02 0.02 0.01 0.01 0.01 0.01 0.01 0.01 0.02
0.03 0.04 0.04 0.06 0.05 0.05 0.04 0.03 0.03 0.04 0.04 0.05 0.05 0.06 0.08 0.10 0.11 0.10 0.07 0.05 0.02 0.01 0.01 0.00 0.00 0.00 0.00 0.00 0.00 0.00 0.00 0.00 0.01 0.01 0.01 0.01 0.01 0.01 0.01 0.01 0.00 0.00 0.01
0.03 0.03 0.04 0.06 0.07 0.07 0.07 0.05 0.04 0.03 0.03 0.03 0.04 0.04 0.06 0.09 0.10 0.10 0.10 0.08 0.05 0.03 0.01 0.00 0.00 0.00 0.00 0.00 0.00 0.00 0.00 0.00 0.00 0.00 0.00 0.00 0.00 0.00 0.00 0.00 0.01 0.00 0.00
0.02 0.02 0.03 0.05 0.06 0.08 0.08 0.08 0.06 0.04 0.03 0.03 0.04 0.04 0.05 0.08 0.11 0.12 0.12 0.12 0.09 0.06 0.04 0.02 0.01 0.00 0.00 0.00 0.00 0.00 0.00 0.00 0.01 0.01 0.00 0.00 0.00 0.00 0.00 0.00 0.00 0.00 0.00
0.02 0.03 0.03 0.03 0.05 0.06 0.06 0.08 0.08 0.07 0.05 0.04 0.03 0.03 0.04 0.05 0.07 0.09 0.10 0.12 0.11 0.08 0.05 0.04 0.02 0.01 0.01 0.01 0.01 0.01 0.01 0.01 0.00 0.00 0.00 0.00 0.00 0.00 0.00 0.00 0.00 0.00 0.00
0.01 0.02 0.02 0.03 0.04 0.05 0.05 0.06 0.07 0.08 0.07 0.05 0.04 0.03 0.03 0.04 0.04 0.06 0.07 0.08 0.11 0.12 0.08 0.05 0.03 0.01 0.01 0.01 0.01 0.01 0.01 0.01 0.01 0.00 0.00 0.00 0.00 0.00 0.00 0.00 0.00 0.00 0.00
0.01 0.01 0.01 0.01 0.02 0.02 0.03 0.04 0.05 0.06 0.07 0.06 0.05 0.04 0.03 0.03 0.03 0.04 0.05 0.06 0.06 0.09 0.11 0.09 0.05 0.03 0.02 0.01 0.01 0.01 0.01 0.01 0.01 0.01 0.00 0.00 0.00 0.00 0.00 0.00 0.00 0.00 0.01
0.00 0.00 0.00 0.01 0.01 0.01 0.01 0.02 0.03 0.04 0.05 0.05 0.05 0.06 0.05 0.04 0.03 0.03 0.04 0.05 0.05 0.05 0.06 0.07 0.07 0.05 0.03 0.01 0.01 0.02 0.02 0.04 0.03 0.02 0.01 0.01 0.01 0.00 0.00 0.01 0.01 0.01 0.01
MSLP
1017.73 1017.81 1017.89 1018.03 1018.24 1018.51 1018.82 1019.11 1019.34 1019.50 1019.58 1019.61 1019.62 1019.64 1019.70 1019.80 1019.92 1020.05 1020.17 1020.26 1020.32 1020.37 1020.41 1020.46 1020.51 1020.54 1020.54 1020.48 1020.35 1020.16 1019.91 1019.64 1019.39 1019.17 1018.99 1018.85 1018.72 1018.55 1018.33 1018.01 1017.61 1017.15 1016.66
1017.63 1017.73 1017.86 1018.06 1018.33 1018.67 1019.01 1019.32 1019.56 1019.71 1019.77 1019.80 1019.81 1019.86 1019.94 1020.07 1020.22 1020.38 1020.51 1020.62 1020.70 1020.76 1020.81 1020.87 1020.93 1020.97 1020.98 1020.93 1020.81 1020.61 1020.37 1020.11 1019.86 1019.66 1019.50 1019.37 1019.26 1019.11 1018.91 1018.62 1018.26 1017.84 1017.39
1017.61 1017.71 1017.87 1018.11 1018.43 1018.80 1019.18 1019.50 1019.74 1019.89 1019.97 1020.00 1020.04 1020.11 1020.23 1020.38 1020.56 1020.73 1020.87 1020.98 1021.06 1021.12 1021.17 1021.24 1021.31 1021.36 1021.38 1021.34 1021.23 1021.05 1020.82 1020.58 1020.36 1020.18 1020.04 1019.94 1019.85 1019.72 1019.54 1019.27 1018.93 1018.54 1018.13
1017.67 1017.77 1017.93 1018.20 1018.54 1018.93 1019.32 1019.65 1019.90 1020.06 1020.15 1020.21 1020.29 1020.40 1020.55 1020.74 1020.93 1021.11 1021.25 1021.35 1021.41 1021.46 1021.51 1021.58 1021.65 1021.71 1021.75 1021.72 1021.62 1021.46 1021.26 1021.05 1020.86 1020.71 1020.60 1020.53 1020.46 1020.35 1020.18 1019.93 1019.61 1019.24 1018.86
1017.80 1017.89 1018.06 1018.33 1018.69 1019.08 1019.46 1019.79 1020.03 1020.20 1020.32 1020.42 1020.54 1020.70 1020.89 1021.11 1021.33 1021.51 1021.64 1021.73 1021.78 1021.81 1021.86 1021.92 1022.00 1022.07 1022.11 1022.10 1022.02 1021.88 1021.70 1021.51 1021.34 1021.22 1021.15 1021.10 1021.05 1020.96 1020.80 1020.57 1020.26 1019.91 1019.56
1018.00 1018.09 1018.26 1018.53 1018.88 1019.26 1019.63 1019.93 1020.17 1020.34 1020.48 1020.62 1020.78 1020.99 1021.24 1021.49 1021.73 1021.92 1022.05 1022.13 1022.16 1022.19 1022.23 1022.29 1022.37 1022.45 1022.49 1022.49 1022.41 1022.28 1022.12 1021.94 1021.80 1021.70 1021.64 1021.62 1021.58 1021.50 1021.36 1021.14 1020.86 1020.54 1020.21
1018.24 1018.33 1018.51 1018.79 1019.13 1019.49 1019.83 1020.11 1020.33 1020.50 1020.65 1020.82 1021.02 1021.28 1021.57 1021.86 1022.13 1022.33 1022.47 1022.54 1022.58 1022.60 1022.64 1022.70 1022.78 1022.85 1022.90 1022.89 1022.82 1022.69 1022.53 1022.36 1022.22 1022.13 1022.08 1022.06 1022.03 1021.97 1021.84 1021.64 1021.38 1021.09 1020.81
1018.50 1018.61 1018.81 1019.09 1019.43 1019.77 1020.08 1020.34 1020.53 1020.69 1020.85 1021.03 1021.27 1021.56 1021.89 1022.21 1022.50 1022.73 1022.88 1022.96 1023.00 1023.03 1023.07 1023.13 1023.21 1023.28 1023.33 1023.31 1023.23 1023.09 1022.92 1022.75 1022.61 1022.51 1022.46 1022.44 1022.42 1022.36 1022.24 1022.06 1021.84 1021.59 1021.35
1018.75 1018.89 1019.11 1019.42 1019.76 1020.09 1020.38 1020.61 1020.79 1020.93 1021.08 1021.27 1021.53 1021.84 1022.19 1022.54 1022.85 1023.10 1023.26 1023.36 1023.41 1023.45 1023.50 1023.57 1023.64 1023.71 1023.74 1023.71 1023.62 1023.48 1023.30 1023.12 1022.97 1022.87 1022.81 1022.78 1022.75 1022.70 1022.59 1022.43 1022.23 1022.03 1021.84
1018.96 1019.13 1019.40 1019.73 1020.09 1020.43 1020.71 1020.93 1021.08 1021.22 1021.36 1021.55 1021.81 1022.13 1022.48 1022.84 1023.16 1023.42 1023.60 1023.71 1023.78 1023.83 1023.89 1023.96 1024.03 1024.10 1024.12 1024.08 1023.98 1023.83 1023.65 1023.47 1023.32 1023.21 1023.15 1023.11 1023.08 1023.02 1022.92 1022.78 1022.60 1022.43 1022.29
1019.11 1019.32 1019.63 1020.00 1020.38 1020.74 1021.03 1021.25 1021.40 1021.53 1021.67 1021.85 1022.10 1022.41 1022.75 1023.10 1023.42 1023.68 1023.86 1023.99 1024.07 1024.14 1024.20 1024.28 1024.36 1024.41 1024.43 1024.39 1024.29 1024.15 1023.97 1023.80 1023.66 1023.56 1023.49 1023.45 1023.42 1023.35 1023.25 1023.12 1022.96 1022.81 1022.69
1019.19 1019.43 1019.77 1020.18 1020.59 1020.97 1021.29 1021.52 1021.69 1021.83 1021.97 1022.15 1022.38 1022.67 1022.99 1023.31 1023.61 1023.86 1024.04 1024.17 1024.27 1024.35 1024.43 1024.51 1024.59 1024.65 1024.67 1024.63 1024.54 1024.41 1024.25 1024.10 1023.97 1023.89 1023.83 1023.80 1023.76 1023.69 1023.59 1023.46 1023.31 1023.17 1023.07
1019.21 1019.46 1019.82 1020.25 1020.69 1021.10 1021.44 1021.71 1021.91 1022.07 1022.22 1022.40 1022.62 1022.88 1023.17 1023.46 1023.73 1023.95 1024.13 1024.26 1024.37 1024.46 1024.55 1024.65 1024.73 1024.80 1024.82 1024.79 1024.71 1024.60 1024.46 1024.34 1024.24 1024.17 1024.13 1024.11 1024.07 1024.00 1023.90 1023.77 1023.63 1023.49 1023.39
1019.19 1019.43 1019.78 1020.21 1020.66 1021.09 1021.47 1021.78 1022.02 1022.21 1022.39 1022.58 1022.79 1023.02 1023.28 1023.52 1023.76 1023.96 1024.12 1024.26 1024.38 1024.49 1024.60 1024.71 1024.81 1024.87 1024.90 1024.87 1024.81 1024.71 1024.59 1024.49 1024.42 1024.37 1024.35 1024.34 1024.31 1024.25 1024.16 1024.03 1023.89 1023.76 1023.66
1019.17 1019.37 1019.69 1020.09 1020.53 1020.97 1021.37 1021.71 1022.00 1022.23 1022.44 1022.64 1022.85 1023.07 1023.29 1023.50 1023.70 1023.88 1024.04 1024.18 1024.32 1024.46 1024.59 1024.72 1024.83 1024.90 1024.93 1024.90 1024.83 1024.74 1024.64 1024.54 1024.48 1024.45 1024.44 1024.44 1024.43 1024.38 1024.30 1024.19 1024.07 1023.94 1023.85
1019.22 1019.35 1019.60 1019.95 1020.35 1020.76 1021.17 1021.53 1021.85 1022.13 1022.38 1022.60 1022.82 1023.02 1023.22 1023.40 1023.58 1023.74 1023.90 1024.06 1024.22 1024.39 1024.56 1024.71 1024.83 1024.91 1024.93 1024.90 1024.82 1024.71 1024.60 1024.50 1024.43 1024.39 1024.39 1024.39 1024.39 1024.37 1024.31 1024.23 1024.13 1024.03 1023.95
1019.38 1019.42 1019.58 1019.84 1020.17 1020.55 1020.93 1021.30 1021.65 1021.96 1022.24 1022.48 1022.70 1022.90 1023.08 1023.24 1023.40 1023.56 1023.72 1023.90 1024.10 1024.31 1024.51 1024.69 1024.84 1024.92 1024.94 1024.89 1024.79 1024.65 1024.51 1024.38 1024.28 1024.23 1024.21 1024.21 1024.22 1024.22 1024.19 1024.14 1024.08 1024.02 1023.96
1019.69 1019.64 1019.69 1019.85 1020.10 1020.41 1020.75 1021.10 1021.45 1021.78 1022.08 1022.34 1022.56 1022.75 1022.92 1023.07 1023.21 1023.37 1023.54 1023.75 1023.98 1024.22 1024.47 1024.68 1024.85 1024.95 1024.96 1024.90 1024.77 1024.60 1024.41 1024.24 1024.11 1024.02 1023.97 1023.96 1023.96 1023.97 1023.97 1023.96 1023.94 1023.92 1023.89
1020.18 1020.04 1019.99 1020.05 1020.19 1020.42 1020.70 1021.02 1021.35 1021.67 1021.97 1022.23 1022.45 1022.64 1022.79 1022.92 1023.05 1023.20 1023.38 1023.61 1023.86 1024.14 1024.42 1024.67 1024.87 1024.98 1025.00 1024.93 1024.78 1024.58 1024.36 1024.15 1023.96 1023.83 1023.74 1023.70 1023.69 1023.70 1023.72 1023.74 1023.75 1023.76 1023.76
1020.84 1020.63 1020.50 1020.46 1020.51 1020.65 1020.86 1021.12 1021.41 1021.71 1021.99 1022.24 1022.44 1022.60 1022.73 1022.84 1022.95 1023.09 1023.27 1023.49 1023.76 1024.06 1024.37 1024.64 1024.86 1025.00 1025.03 1024.97 1024.83 1024.62 1024.38 1024.13 1023.91 1023.73 1023.60 1023.51 1023.47 1023.46 1023.48 1023.51 1023.54 1023.57 1023.59
1021.67 1021.42 1021.23 1021.11 1021.08 1021.13 1021.26 1021.46 1021.69 1021.95 1022.19 1022.40 1022.58 1022.71 1022.81 1022.88 1022.96 1023.06 1023.22 1023.42 1023.68 1023.98 1024.29 1024.58 1024.82 1024.98 1025.05 1025.02 1024.89 1024.70 1024.47 1024.22 1023.97 1023.75 1023.58 1023.45 1023.36 1023.32 1023.30 1023.32 1023.35 1023.38 1023.40
1022.61 1022.36 1022.14 1021.98 1021.89 1021.87 1021.93 1022.05 1022.22 1022.41 1022.60 1022.77 1022.90 1022.98 1023.03 1023.06 1023.10 1023.15 1023.26 1023.42 1023.64 1023.90 1024.19 1024.47 1024.72 1024.90 1025.00 1025.02 1024.95 1024.80 1024.61 1024.38 1024.13 1023.90 1023.68 1023.50 1023.36 1023.27 1023.21 1023.18 1023.18 1023.19 1023.20
1023.64 1023.42 1023.22 1023.04 1022.91 1022.84 1022.83 1022.88 1022.97 1023.09 1023.22 1023.32 1023.40 1023.43 1023.43 1023.41 1023.38 1023.38 1023.41 1023.50 1023.64 1023.84 1024.07 1024.31 1024.55 1024.74 1024.88 1024.95 1024.95 1024.87 1024.74 1024.55 1024.34 1024.11 1023.87 1023.65 1023.45 1023.29 1023.17 1023.09 1023.04 1023.01 1023.00
1024.72 1024.56 1024.39 1024.22 1024.08 1023.97 1023.90 1023.88 1023.90 1023.95 1024.01 1024.05 1024.07 1024.05 1024.00 1023.92 1023.83 1023.75 1023.69 1023.68 1023.73 1023.82 1023.97 1024.14 1024.33 1024.52 1024.67 1024.79 1024.86 1024.86 1024.80 1024.69 1024.52 1024.31 1024.07 1023.82 1023.57 1023.35 1023.16 1023.01 1022.90 1022.84 1022.79
1025.83 1025.73 1025.61 1025.47 1025.33 1025.19 1025.08 1025.00 1024.95 1024.93 1024.91 1024.90 1024.86 1024.80 1024.70 1024.57 1024.42 1024.26 1024.12 1024.00 1023.93 1023.90 1023.93 1024.01 1024.12 1024.26 1024.42 1024.56 1024.68 1024.75 1024.77 1024.73 1024.62 1024.44 1024.21 1023.94 1023.66 1023.38 1023.13 1022.92 1022.76 1022.65 1022.58
1026.93 1026.91 1026.84 1026.73 1026.59 1026.44 1026.29 1026.16 1026.05 1025.96 1025.88 1025.81 1025.74 1025.64 1025.51 1025.34 1025.15 1024.93 1024.70 1024.48 1024.28 1024.12 1024.02 1023.97 1023.98 1024.06 1024.17 1024.31 1024.45 1024.58 1024.66 1024.67 1024.61 1024.47 1024.26 1023.99 1023.68 1023.36 1023.07 1022.81 1022.61 1022.47 1022.37
Thickness
5701 5700 5697 5696 5696 5695 5693 5692 5691 5690 5689 5688 5687 5686 5686 5685 5685 5684 5683 5682 5682 5681 5680 5679 5678 5678 5677 5676 5675 5675 5674 5674 5674 5673 5673 5672 5672 5672 5671 5670 5670 5669 5669
5700 5696 5694 5693 5692 5691 5689 5688 5687 5686 5685 5684 5683 5682 5682 5681 5681 5680 5679 5678 5677 5677 5676 5675 5674 5673 5672 5671 5671 5670 5670 5670 5669 5669 5668 5668 5668 5667 5667 5666 5666 5665 5665
5696 5692 5689 5688 5688 5687 5685 5684 5683 5682 5681 5680 5679 5678 5677 5677 5676 5675 5675 5674 5673 5672 5671 5671 5670 5668 5668 5667 5666 5666 5666 5665 5665 5665 5665 5664 5664 5664 5663 5662 5661 5661 5661
5691 5688 5685 5684 5683 5682 5681 5679 5678 5678 5677 5676 5675 5674 5673 5673 5672 5671 5670 5670 5669 5668 5667 5666 5665 5664 5663 5662 5662 5662 5661 5661 5662 5662 5661 5661 5660 5660 5659 5658 5657 5657 5656
5685 5683 5681 5679 5678 5678 5676 5675 5674 5673 5672 5671 5671 5670 5669 5668 5668 5667 5666 5665 5664 5663 5662 5661 5660 5659 5658 5658 5658 5657 5657 5657 5657 5658 5657 5656 5656 5656 5655 5654 5653 5653 5652
5679 5678 5675 5674 5673 5673 5672 5670 5670 5669 5668 5667 5666 5665 5665 5664 5663 5662 5661 5660 5659 5658 5657 5656 5655 5654 5654 5654 5653 5653 5653 5653 5653 5653 5653 5652 5652 5651 5651 5650 5649 5648 5647
5673 5672 5670 5669 5668 5667 5667 5666 5665 5664 5663 5662 5661 5661 5660 5659 5658 5657 5656 5655 5654 5653 5652 5651 5650 5649 5649 5649 5648 5648 5648 5648 5649 5649 5648 5648 5647 5647 5646 5645 5645 5644 5643
5666 5666 5664 5663 5663 5662 5661 5660 5660 5659 5659 5658 5657 5656 5655 5654 5653 5652 5651 5650 5649 5648 5647 5646 5645 5645 5644 5644 5644 5644 5644 5644 5644 5644 5644 5643 5643 5642 5642 5641 5640 5640 5639
5659 5658 5657 5657 5657 5656 5656 5655 5655 5654 5653 5653 5652 5651 5650 5649 5648 5647 5646 5645 5644 5643 5642 5641 5640 5640 5640 5639 5639 5640 5640 5640 5640 5640 5639 5638 5638 5638 5638 5637 5636 5635 5634
5651 5651 5650 5650 5650 5650 5650 5649 5649 5648 5648 5647 5646 5645 5644 5643 5642 5641 5641 5639 5638 5638 5637 5636 5635 5635 5635 5635 5635 5635 5636 5636 5636 5635 5635 5634 5633 5633 5633 5632 5631 5630 5629
5642 5642 5643 5643 5644 5644 5644 5643 5642 5642 5641 5641 5640 5639 5639 5638 5637 5636 5635 5634 5633 5632 5632 5631 5631 5630 5630 5630 5631 5631 5631 5631 5631 5631 5630 5629 5629 5629 5628 5627 5626 5625 5624
5632 5634 5635 5636 5636 5637 5638 5637 5636 5635 5635 5635 5635 5634 5633 5633 5632 5630 5629 5629 5628 5627 5626 5626 5626 5625 5626 5626 5626 5626 5626 5626 5626 5626 5625 5625 5624 5624 5623 5622 5621 5620 5620
5625 5626 5627 5629 5630 5630 5630 5630 5630 5630 5629 5628 5628 5628 5628 5627 5626 5625 5624 5623 5622 5622 5621 5620 5620 5620 5620 5620 5620 5621 5620 5620 5620 5620 5620 5619 5619 5618 5618 5617 5616 5615 5615
5619 5620 5621 5622 5623 5623 5624 5624 5624 5624 5623 5623 5622 5621 5621 5621 5621 5619 5618 5617 5617 5616 5616 5615 5615 5615 5615 5615 5615 5615 5615 5615 5615 5614 5614 5614 5613 5613 5612 5612 5611 5610 5610
5612 5613 5614 5614 5616 5616 5616 5617 5617 5617 5617 5616 5615 5615 5615 5615 5614 5614 5613 5612 5611 5610 5610 5609 5609 5609 5608 5609 5609 5609 5609 5609 5609 5609 5608 5608 5607 5607 5607 5607 5606 5605 5604
5605 5606 5607 5607 5609 5609 5609 5609 5610 5610 5610 5609 5609 5609 5608 5608 5607 5607 5606 5605 5605 5604 5604 5603 5603 5602 5602 5602 5602 5602 5603 5603 5603 5603 5602 5602 5602 5601 5601 5601 5601 5600 5599
5598 5599 5600 5601 5601 5601 5602 5602 5603 5602 5602 5602 5602 5601 5601 5601 5600 5600 5599 5599 5598 5597 5596 5596 5596 5595 5595 5595 5595 5595 5596 5596 5596 5597 5596 5596 5595 5595 5595 5595 5595 5594 5593
5590 5591 5593 5594 5594 5594 5594 5595 5595 5594 5594 5594 5594 5593 5593 5593 5593 5592 5592 5592 5591 5590 5589 5589 5588 5588 5587 5587 5587 5587 5588 5588 5589 5589 5590 5590 5589 5589 5589 5588 5588 5587 5587
5582 5583 5584 5585 5586 5587 5587 5587 5587 5586 5585 5585 5585 5585 5585 5585 5585 5584 5584 5584 5583 5582 5582 5581 5580 5580 5579 5579 5579 5580 5580 5581 5581 5582 5582 5582 5582 5581 5581 5581 5580 5580 5580
5573 5575 5576 5576 5577 5578 5578 5577 5577 5576 5576 5575 5576 5576 5576 5576 5576 5576 5575 5575 5574 5573 5573 5573 5572 5571 5571 5571 5571 5571 5572 5573 5574 5573 5574 5574 5574 5573 5573 5573 5573 5572 5572
5563 5565 5566 5566 5567 5567 5568 5567 5566 5566 5566 5566 5566 5566 5566 5567 5567 5567 5567 5566 5565 5565 5564 5565 5564 5563 5562 5562 5561 5561 5563 5565 5566 5565 5566 5566 5565 5565 5565 5564 5564 5564 5563
5553 5554 5555 5556 5556 5557 5557 5557 5557 5556 5556 5556 5557 5557 5557 5557 5557 5557 5557 5557 5557 5556 5555 5555 5555 5555 5554 5554 5553 5553 5553 5555 5556 5557 5556 5556 5556 5556 5555 5554 5554 5554 5553
5542 5543 5544 5545 5546 5547 5547 5547 5547 5547 5546 5546 5547 5547 5547 5547 5547 5547 5548 5548 5548 5548 5547 5546 5546 5546 5544 5544 5545 5544 5544 5546 5545 5547 5547 5547 5546 5545 5545 5544 5544 5544 5543
5530 5532 5533 5534 5535 5536 5537 5537 5537 5537 5537 5537 5538 5538 5537 5537 5537 5538 5538 5539 5539 5538 5538 5537 5537 5537 5536 5535 5535 5536 5536 5536 5534 5535 5536 5536 5536 5535 5535 5534 5534 5533 5533
5519 5520 5522 5523 5524 5525 5526 5527 5527 5527 5527 5528 5528 5528 5527 5527 5528 5528 5529 5529 5529 5529 5528 5528 5528 5528 5527 5526 5525 5525 5526 5526 5526 5524 5525 5524 5524 5524 5524 5523 5523 5523 5523
5508 5509 5510 5511 5512 5514 5515 5515 5516 5516 5516 5517 5517 5517 5517 5517 5517 5518 5518 5518 5519 5519 5519 5518 5519 5518 5518 5517 5517 5516 5516 5515 5516 5515 5514 5514 5512 5512 5513 5513 5512 5512 5512